Time,TemperatureF,DewpointF,PressureIn,WindDirection,WindDirectionDegrees,WindSpeedMPH,WindSpeedGustMPH,Humidity,HourlyPrecipIn,Conditions,Clouds,dailyrainin,SolarRadiationWatts/m^2,SoftwareType,DateUTC
2013-05-17 00:02:00,72.5,60.1,29.87,West,277,6.0,6.0,65,0.00,,,0.00,0,Wunderground v.1.15,2013-05-17 04:02:00,
2013-05-17 00:04:00,72.4,60.0,29.87,West,276,6.0,6.0,65,0.00,,,0.00,0,Wunderground v.1.15,2013-05-17 04:04:00,
2013-05-17 00:08:00,72.4,60.4,29.87,West,280,6.0,6.0,66,0.00,,,0.00,0,Wunderground v.1.15,2013-05-17 04:08:00,
2013-05-17 00:10:00,72.4,60.4,29.87,West,277,7.0,9.0,66,0.00,,,0.00,0,Wunderground v.1.15,2013-05-17 04:10:00,
2013-05-17 00:16:00,72.4,60.4,29.88,West,279,8.0,11.0,66,0.00,,,0.00,0,Wunderground v.1.15,2013-05-17 04:16:00,
2013-05-17 00:20:00,72.4,60.4,29.88,West,267,8.0,8.0,66,0.00,,,0.00,0,Wunderground v.1.15,2013-05-17 04:20:00,
2013-05-17 00:26:00,72.4,60.4,29.88,West,267,8.0,8.0,66,0.00,,,0.00,0,Wunderground v.1.15,2013-05-17 04:26:00,
2013-05-17 00:32:00,72.3,60.3,29.88,West,266,7.0,8.0,66,0.00,,,0.00,0,Wunderground v.1.15,2013-05-17 04:32:00,
2013-05-17 00:38:00,72.1,60.5,29.88,WSW,254,7.0,8.0,67,0.00,,,0.00,0,Wunderground v.1.15,2013-05-17 04:38:00,
2013-05-17 00:46:00,71.8,60.2,29.89,West,259,6.0,12.0,67,0.00,,,0.00,0,Wunderground v.1.15,2013-05-17 04:46:00,
2013-05-17 00:52:00,71.7,60.6,29.88,West,259,6.0,8.0,68,0.00,,,0.00,0,Wunderground v.1.15,2013-05-17 04:52:00,
2013-05-17 00:58:00,71.4,60.3,29.89,West,267,7.0,10.0,68,0.00,,,0.00,0,Wunderground v.1.15,2013-05-17 04:58:00,
2013-05-17 01:04:00,71.4,60.7,29.88,West,269,8.0,11.0,69,0.00,,,0.00,0,Wunderground v.1.15,2013-05-17 05:04:00,
2013-05-17 01:10:00,71.3,60.6,29.88,West,268,8.0,8.0,69,0.00,,,0.00,0,Wunderground v.1.15,2013-05-17 05:10:00,
2013-05-17 01:16:00,71.3,60.6,29.88,West,265,8.0,10.0,69,0.00,,,0.00,0,Wunderground v.1.15,2013-05-17 05:16:00,
2013-05-17 01:22:00,71.1,60.4,29.88,West,273,8.0,10.0,69,0.00,,,0.00,0,Wunderground v.1.15,2013-05-17 05:22:00,
2013-05-17 01:28:00,71.0,60.3,29.88,West,271,8.0,10.0,69,0.00,,,0.00,0,Wunderground v.1.15,2013-05-17 05:28:00,
2013-05-17 01:34:00,70.9,60.2,29.89,West,270,8.0,11.0,69,0.00,,,0.00,0,Wunderground v.1.15,2013-05-17 05:34:00,
2013-05-17 01:40:00,70.9,60.2,29.89,West,273,7.0,7.0,69,0.00,,,0.00,0,Wunderground v.1.15,2013-05-17 05:40:00,
2013-05-17 01:46:00,70.7,60.4,29.89,West,281,7.0,7.0,70,0.00,,,0.00,0,Wunderground v.1.15,2013-05-17 05:46:00,
2013-05-17 01:52:00,70.6,60.3,29.89,West,271,7.0,7.0,70,0.00,,,0.00,0,Wunderground v.1.15,2013-05-17 05:52:00,
2013-05-17 01:58:00,70.4,60.1,29.89,West,277,7.0,7.0,70,0.00,,,0.00,0,Wunderground v.1.15,2013-05-17 05:58:00,
2013-05-17 02:04:00,70.2,60.4,29.89,West,279,6.0,10.0,71,0.00,,,0.00,0,Wunderground v.1.15,2013-05-17 06:04:00,
2013-05-17 02:10:00,70.0,60.2,29.89,WNW,291,7.0,11.0,71,0.00,,,0.00,0,Wunderground v.1.15,2013-05-17 06:10:00,
2013-05-17 02:16:00,69.8,60.0,29.89,WNW,291,6.0,11.0,71,0.00,,,0.00,0,Wunderground v.1.15,2013-05-17 06:16:00,
2013-05-17 02:22:00,69.6,59.8,29.90,WNW,290,6.0,9.0,71,0.00,,,0.00,0,Wunderground v.1.15,2013-05-17 06:22:00,
2013-05-17 02:28:00,69.5,59.7,29.90,WNW,290,6.0,9.0,71,0.00,,,0.00,0,Wunderground v.1.15,2013-05-17 06:28:00,
2013-05-17 02:34:00,69.4,59.6,29.90,WNW,289,6.0,11.0,71,0.00,,,0.00,0,Wunderground v.1.15,2013-05-17 06:34:00,
2013-05-17 02:40:00,69.2,59.4,29.90,WNW,289,6.0,6.0,71,0.00,,,0.00,0,Wunderground v.1.15,2013-05-17 06:40:00,
2013-05-17 02:46:00,69.2,59.4,29.91,WNW,290,6.0,8.0,71,0.00,,,0.00,0,Wunderground v.1.15,2013-05-17 06:46:00,
2013-05-17 02:52:00,69.1,59.3,29.91,WNW,293,6.0,6.0,71,0.00,,,0.00,0,Wunderground v.1.15,2013-05-17 06:52:00,
2013-05-17 02:58:00,69.1,58.9,29.91,WNW,294,6.0,8.0,70,0.00,,,0.00,0,Wunderground v.1.15,2013-05-17 06:58:00,
2013-05-17 03:06:00,69.1,58.9,29.91,WNW,295,6.0,8.0,70,0.00,,,0.00,0,Wunderground v.1.15,2013-05-17 07:06:00,
2013-05-17 03:12:00,69.2,58.6,29.92,WNW,299,6.0,6.0,69,0.00,,,0.00,0,Wunderground v.1.15,2013-05-17 07:12:00,
2013-05-17 03:18:00,69.2,58.2,29.92,WNW,299,6.0,9.0,68,0.00,,,0.00,0,Wunderground v.1.15,2013-05-17 07:18:00,
2013-05-17 03:24:00,69.3,58.3,29.92,NW,311,7.0,7.0,68,0.00,,,0.00,0,Wunderground v.1.15,2013-05-17 07:24:00,
2013-05-17 03:30:00,69.4,57.5,29.93,NW,315,7.0,10.0,66,0.00,,,0.00,0,Wunderground v.1.15,2013-05-17 07:30:00,
2013-05-17 03:36:00,69.6,57.3,29.93,NW,315,8.0,12.0,65,0.00,,,0.00,0,Wunderground v.1.15,2013-05-17 07:36:00,
2013-05-17 03:42:00,69.6,57.3,29.93,NW,325,8.0,8.0,65,0.00,,,0.00,0,Wunderground v.1.15,2013-05-17 07:42:00,
2013-05-17 03:48:00,69.5,57.2,29.93,NNW,341,6.0,8.0,65,0.00,,,0.00,0,Wunderground v.1.15,2013-05-17 07:48:00,
2013-05-17 03:54:00,69.3,57.0,29.93,NNW,338,6.0,8.0,65,0.00,,,0.00,0,Wunderground v.1.15,2013-05-17 07:54:00,
2013-05-17 04:00:00,69.1,57.3,29.93,NNW,338,6.0,11.0,66,0.00,,,0.00,0,Wunderground v.1.15,2013-05-17 08:00:00,
2013-05-17 04:06:00,68.9,57.1,29.94,NNW,338,6.0,11.0,66,0.00,,,0.00,0,Wunderground v.1.15,2013-05-17 08:06:00,
2013-05-17 04:12:00,68.6,57.2,29.94,NNW,338,5.0,6.0,67,0.00,,,0.00,0,Wunderground v.1.15,2013-05-17 08:12:00,
2013-05-17 04:18:00,68.4,57.4,29.94,NNW,338,5.0,6.0,68,0.00,,,0.00,0,Wunderground v.1.15,2013-05-17 08:18:00,
2013-05-17 04:24:00,68.1,57.5,29.94,NNW,338,5.0,6.0,69,0.00,,,0.00,0,Wunderground v.1.15,2013-05-17 08:24:00,
2013-05-17 04:30:00,67.9,57.8,29.95,NNW,338,4.0,4.0,70,0.00,,,0.00,0,Wunderground v.1.15,2013-05-17 08:30:00,
2013-05-17 04:36:00,67.8,57.7,29.95,NNW,340,5.0,7.0,70,0.00,,,0.00,0,Wunderground v.1.15,2013-05-17 08:36:00,
2013-05-17 04:42:00,67.7,57.2,29.95,NNW,339,5.0,7.0,69,0.00,,,0.00,0,Wunderground v.1.15,2013-05-17 08:42:00,
2013-05-17 04:48:00,67.6,56.7,29.95,NNW,339,5.0,7.0,68,0.00,,,0.00,0,Wunderground v.1.15,2013-05-17 08:48:00,
2013-05-17 04:56:00,67.7,56.3,29.95,NNW,342,5.0,9.0,67,0.00,,,0.00,0,Wunderground v.1.15,2013-05-17 08:56:00,
2013-05-17 05:02:00,67.7,55.5,29.96,NNW,343,5.0,5.0,65,0.00,,,0.00,0,Wunderground v.1.15,2013-05-17 09:02:00,
2013-05-17 05:08:00,67.8,55.6,29.96,NNW,345,6.0,6.0,65,0.00,,,0.00,0,Wunderground v.1.15,2013-05-17 09:08:00,
2013-05-17 05:14:00,67.7,56.3,29.96,NNW,344,5.0,6.0,67,0.00,,,0.00,0,Wunderground v.1.15,2013-05-17 09:14:00,
2013-05-17 05:20:00,67.5,56.6,29.96,NNW,345,5.0,5.0,68,0.00,,,0.00,0,Wunderground v.1.15,2013-05-17 09:20:00,
2013-05-17 05:26:00,67.3,57.2,29.97,NNW,345,5.0,7.0,70,0.00,,,0.00,0,Wunderground v.1.15,2013-05-17 09:26:00,
2013-05-17 05:32:00,67.0,57.3,29.97,NNW,345,4.0,5.0,71,0.00,,,0.00,0,Wunderground v.1.15,2013-05-17 09:32:00,
2013-05-17 05:38:00,66.7,57.4,29.97,NNW,345,4.0,5.0,72,0.00,,,0.00,0,Wunderground v.1.15,2013-05-17 09:38:00,
2013-05-17 05:46:00,66.4,57.1,29.98,NNW,345,3.0,6.0,72,0.00,,,0.00,5,Wunderground v.1.15,2013-05-17 09:46:00,
2013-05-17 05:52:00,66.2,56.9,29.98,NNW,345,3.0,9.0,72,0.00,,,0.00,9,Wunderground v.1.15,2013-05-17 09:52:00,
2013-05-17 05:58:00,66.1,56.8,29.99,NNW,345,4.0,9.0,72,0.00,,,0.00,12,Wunderground v.1.15,2013-05-17 09:58:00,
2013-05-17 06:06:00,66.1,56.8,29.99,NNW,345,4.0,6.0,72,0.00,,,0.00,19,Wunderground v.1.15,2013-05-17 10:06:00,
2013-05-17 06:12:00,66.2,57.3,30.00,NNW,345,4.0,7.0,73,0.00,,,0.00,25,Wunderground v.1.15,2013-05-17 10:12:00,
2013-05-17 06:18:00,66.0,57.1,30.00,NNW,345,3.0,7.0,73,0.00,,,0.00,35,Wunderground v.1.15,2013-05-17 10:18:00,
2013-05-17 06:24:00,65.9,57.0,30.01,NNW,347,2.0,3.0,73,0.00,,,0.00,49,Wunderground v.1.15,2013-05-17 10:24:00,
2013-05-17 06:30:00,65.8,56.9,30.01,NNW,347,2.0,6.0,73,0.00,,,0.00,60,Wunderground v.1.15,2013-05-17 10:30:00,
2013-05-17 06:36:00,65.8,56.5,30.02,NNW,347,3.0,6.0,72,0.00,,,0.00,76,Wunderground v.1.15,2013-05-17 10:36:00,
2013-05-17 06:42:00,65.9,56.2,30.02,NNW,347,3.0,4.0,71,0.00,,,0.00,95,Wunderground v.1.15,2013-05-17 10:42:00,
2013-05-17 06:48:00,66.2,56.5,30.02,NNW,347,2.0,4.0,71,0.00,,,0.00,111,Wunderground v.1.15,2013-05-17 10:48:00,
2013-05-17 06:54:00,66.4,56.7,30.03,NNW,347,2.0,2.0,71,0.00,,,0.00,130,Wunderground v.1.15,2013-05-17 10:54:00,
2013-05-17 07:00:00,66.6,56.9,30.03,NNW,347,2.0,4.0,71,0.00,,,0.00,151,Wunderground v.1.15,2013-05-17 11:00:00,
2013-05-17 07:06:00,66.8,56.7,30.03,NNW,347,2.0,4.0,70,0.00,,,0.00,178,Wunderground v.1.15,2013-05-17 11:06:00,
2013-05-17 07:12:00,67.0,56.1,30.03,NNW,347,2.0,4.0,68,0.00,,,0.00,200,Wunderground v.1.15,2013-05-17 11:12:00,
2013-05-17 07:18:00,67.3,56.0,30.03,NNW,347,3.0,4.0,67,0.00,,,0.00,220,Wunderground v.1.15,2013-05-17 11:18:00,
2013-05-17 07:24:00,67.7,55.1,30.03,NNW,347,3.0,3.0,64,0.00,,,0.00,237,Wunderground v.1.15,2013-05-17 11:24:00,
2013-05-17 07:30:00,68.4,54.0,30.04,NNW,347,3.0,3.0,60,0.00,,,0.00,258,Wunderground v.1.15,2013-05-17 11:30:00,
2013-05-17 07:36:00,69.1,52.2,30.04,North,355,4.0,9.0,55,0.00,,,0.00,274,Wunderground v.1.15,2013-05-17 11:36:00,
2013-05-17 07:42:00,69.4,52.5,30.04,North,355,4.0,7.0,55,0.00,,,0.00,294,Wunderground v.1.15,2013-05-17 11:42:00,
2013-05-17 07:48:00,69.7,51.8,30.05,North,355,4.0,7.0,53,0.00,,,0.00,313,Wunderground v.1.15,2013-05-17 11:48:00,
2013-05-17 07:54:00,69.9,52.5,30.05,North,355,4.0,6.0,54,0.00,,,0.00,325,Wunderground v.1.15,2013-05-17 11:54:00,
2013-05-17 08:00:00,69.4,52.0,30.05,North,355,6.0,6.0,54,0.00,,,0.00,346,Wunderground v.1.15,2013-05-17 12:00:00,
2013-05-17 08:06:00,69.5,51.1,30.05,North,5,7.0,8.0,52,0.00,,,0.00,371,Wunderground v.1.15,2013-05-17 12:06:00,
2013-05-17 08:12:00,69.6,50.7,30.05,North,5,6.0,6.0,51,0.00,,,0.00,390,Wunderground v.1.15,2013-05-17 12:12:00,
2013-05-17 08:18:00,69.8,50.3,30.05,North,5,6.0,7.0,50,0.00,,,0.00,408,Wunderground v.1.15,2013-05-17 12:18:00,
2013-05-17 08:24:00,69.8,49.2,30.05,North,9,6.0,10.0,48,0.00,,,0.00,427,Wunderground v.1.15,2013-05-17 12:24:00,
2013-05-17 08:30:00,69.7,49.7,30.06,NNE,12,7.0,7.0,49,0.00,,,0.00,446,Wunderground v.1.15,2013-05-17 12:30:00,
2013-05-17 08:36:00,69.7,49.7,30.06,NNE,12,7.0,7.0,49,0.00,,,0.00,464,Wunderground v.1.15,2013-05-17 12:36:00,
2013-05-17 08:42:00,69.7,49.1,30.07,NNE,14,7.0,8.0,48,0.00,,,0.00,482,Wunderground v.1.15,2013-05-17 12:42:00,
2013-05-17 08:48:00,69.8,49.2,30.07,North,5,8.0,9.0,48,0.00,,,0.00,492,Wunderground v.1.15,2013-05-17 12:48:00,
2013-05-17 08:54:00,69.6,49.0,30.07,NNE,13,8.0,11.0,48,0.00,,,0.00,515,Wunderground v.1.15,2013-05-17 12:54:00,
2013-05-17 09:00:00,69.3,49.9,30.07,North,355,8.0,8.0,50,0.00,,,0.00,529,Wunderground v.1.15,2013-05-17 13:00:00,
2013-05-17 09:06:00,68.8,51.0,30.07,NNE,24,9.0,10.0,53,0.00,,,0.00,548,Wunderground v.1.15,2013-05-17 13:06:00,
2013-05-17 09:12:00,68.4,51.6,30.07,NNE,25,9.0,9.0,55,0.00,,,0.00,570,Wunderground v.1.15,2013-05-17 13:12:00,
2013-05-17 09:18:00,68.1,51.8,30.07,NNE,24,9.0,12.0,56,0.00,,,0.00,587,Wunderground v.1.15,2013-05-17 13:18:00,
2013-05-17 09:24:00,68.5,51.7,30.08,NNE,29,9.0,9.0,55,0.00,,,0.00,606,Wunderground v.1.15,2013-05-17 13:24:00,
2013-05-17 09:30:00,68.8,52.5,30.08,NNE,21,8.0,8.0,56,0.00,,,0.00,622,Wunderground v.1.15,2013-05-17 13:30:00,
2013-05-17 09:36:00,68.5,52.2,30.08,NNE,18,8.0,13.0,56,0.00,,,0.00,640,Wunderground v.1.15,2013-05-17 13:36:00,
2013-05-17 09:42:00,67.5,52.7,30.08,NE,42,9.0,12.0,59,0.00,,,0.00,654,Wunderground v.1.15,2013-05-17 13:42:00,
2013-05-17 09:48:00,66.9,53.0,30.08,NNE,27,9.0,12.0,61,0.00,,,0.00,670,Wunderground v.1.15,2013-05-17 13:48:00,
2013-05-17 09:54:00,66.9,53.0,30.08,NNE,33,7.0,10.0,61,0.00,,,0.00,686,Wunderground v.1.15,2013-05-17 13:54:00,
2013-05-17 10:00:00,66.2,52.8,30.08,NNE,24,7.0,7.0,62,0.00,,,0.00,701,Wunderground v.1.15,2013-05-17 14:00:00,
2013-05-17 10:06:00,67.4,51.2,30.08,NNE,22,7.0,12.0,56,0.00,,,0.00,719,Wunderground v.1.15,2013-05-17 14:06:00,
2013-05-17 10:12:00,67.9,51.6,30.09,NNE,27,8.0,8.0,56,0.00,,,0.00,735,Wunderground v.1.15,2013-05-17 14:12:00,
2013-05-17 10:18:00,67.6,52.8,30.09,NNE,30,8.0,9.0,59,0.00,,,0.00,745,Wunderground v.1.15,2013-05-17 14:18:00,
2013-05-17 10:26:00,68.0,51.7,30.09,NNE,21,8.0,8.0,56,0.00,,,0.00,766,Wunderground v.1.15,2013-05-17 14:26:00,
2013-05-17 10:32:00,68.2,52.4,30.09,NNE,30,8.0,10.0,57,0.00,,,0.00,777,Wunderground v.1.15,2013-05-17 14:32:00,
2013-05-17 10:38:00,67.5,53.1,30.09,NNE,23,8.0,10.0,60,0.00,,,0.00,789,Wunderground v.1.15,2013-05-17 14:38:00,
2013-05-17 10:44:00,67.1,54.5,30.09,NNE,31,8.0,9.0,64,0.00,,,0.00,800,Wunderground v.1.15,2013-05-17 14:44:00,
2013-05-17 10:50:00,66.4,54.7,30.09,NNE,30,7.0,8.0,66,0.00,,,0.00,810,Wunderground v.1.15,2013-05-17 14:50:00,
2013-05-17 10:56:00,66.8,55.1,30.09,NNE,24,7.0,8.0,66,0.00,,,0.00,823,Wunderground v.1.15,2013-05-17 14:56:00,
2013-05-17 11:02:00,66.7,55.8,30.10,NE,34,6.0,8.0,68,0.00,,,0.00,833,Wunderground v.1.15,2013-05-17 15:02:00,
2013-05-17 11:08:00,67.0,54.8,30.10,NNE,32,6.0,8.0,65,0.00,,,0.00,844,Wunderground v.1.15,2013-05-17 15:08:00,
2013-05-17 11:14:00,67.2,54.6,30.10,NNE,29,7.0,7.0,64,0.00,,,0.00,853,Wunderground v.1.15,2013-05-17 15:14:00,
2013-05-17 11:20:00,67.5,54.5,30.10,NE,36,6.0,6.0,63,0.00,,,0.00,867,Wunderground v.1.15,2013-05-17 15:20:00,
2013-05-17 11:26:00,67.6,53.7,30.10,NE,34,6.0,10.0,61,0.00,,,0.00,870,Wunderground v.1.15,2013-05-17 15:26:00,
2013-05-17 11:32:00,67.9,53.5,30.10,NE,36,6.0,6.0,60,0.00,,,0.00,875,Wunderground v.1.15,2013-05-17 15:32:00,
2013-05-17 11:38:00,67.8,53.4,30.10,NNE,32,7.0,8.0,60,0.00,,,0.00,884,Wunderground v.1.15,2013-05-17 15:38:00,
2013-05-17 11:44:00,67.8,53.9,30.10,NE,34,7.0,9.0,61,0.00,,,0.00,893,Wunderground v.1.15,2013-05-17 15:44:00,
2013-05-17 11:50:00,68.4,54.4,30.10,NE,37,6.0,6.0,61,0.00,,,0.00,904,Wunderground v.1.15,2013-05-17 15:50:00,
2013-05-17 11:56:00,68.8,55.7,30.10,NE,38,5.0,7.0,63,0.00,,,0.00,912,Wunderground v.1.15,2013-05-17 15:56:00,
2013-05-17 12:02:00,68.6,53.7,30.10,NE,39,5.0,10.0,59,0.00,,,0.00,918,Wunderground v.1.15,2013-05-17 16:02:00,
2013-05-17 12:08:00,68.9,52.6,30.10,NNE,32,6.0,13.0,56,0.00,,,0.00,923,Wunderground v.1.15,2013-05-17 16:08:00,
2013-05-17 12:16:00,68.6,52.8,30.10,NNE,31,6.0,6.0,57,0.00,,,0.00,930,Wunderground v.1.15,2013-05-17 16:16:00,
2013-05-17 12:22:00,68.8,51.5,30.10,NNE,33,7.0,7.0,54,0.00,,,0.00,933,Wunderground v.1.15,2013-05-17 16:22:00,
2013-05-17 12:28:00,68.9,53.0,30.10,NE,43,6.0,7.0,57,0.00,,,0.00,932,Wunderground v.1.15,2013-05-17 16:28:00,
2013-05-17 12:34:00,69.2,51.3,30.10,NE,38,6.0,7.0,53,0.00,,,0.00,930,Wunderground v.1.15,2013-05-17 16:34:00,
2013-05-17 12:40:00,69.2,51.3,30.10,NE,35,7.0,8.0,53,0.00,,,0.00,939,Wunderground v.1.15,2013-05-17 16:40:00,
2013-05-17 12:46:00,69.0,51.2,30.10,NE,38,8.0,8.0,53,0.00,,,0.00,942,Wunderground v.1.15,2013-05-17 16:46:00,
2013-05-17 12:52:00,69.8,50.9,30.09,NE,40,7.0,7.0,51,0.00,,,0.00,942,Wunderground v.1.15,2013-05-17 16:52:00,
2013-05-17 12:58:00,69.7,52.3,30.09,NE,40,6.0,8.0,54,0.00,,,0.00,942,Wunderground v.1.15,2013-05-17 16:58:00,
2013-05-17 13:04:00,69.5,52.6,30.09,NE,42,6.0,7.0,55,0.00,,,0.00,944,Wunderground v.1.15,2013-05-17 17:04:00,
2013-05-17 13:10:00,69.7,52.8,30.10,NE,42,5.0,5.0,55,0.00,,,0.00,942,Wunderground v.1.15,2013-05-17 17:10:00,
2013-05-17 13:16:00,69.4,53.5,30.09,NE,42,5.0,6.0,57,0.00,,,0.00,940,Wunderground v.1.15,2013-05-17 17:16:00,
2013-05-17 13:22:00,69.7,52.3,30.09,NE,42,5.0,7.0,54,0.00,,,0.00,937,Wunderground v.1.15,2013-05-17 17:22:00,
2013-05-17 13:28:00,69.4,54.0,30.10,NE,41,5.0,7.0,58,0.00,,,0.00,939,Wunderground v.1.15,2013-05-17 17:28:00,
2013-05-17 13:34:00,69.2,54.3,30.10,NE,41,5.0,6.0,59,0.00,,,0.00,933,Wunderground v.1.15,2013-05-17 17:34:00,
2013-05-17 13:40:00,68.6,53.2,30.10,NE,37,6.0,8.0,58,0.00,,,0.00,932,Wunderground v.1.15,2013-05-17 17:40:00,
2013-05-17 13:46:00,68.5,53.6,30.10,NE,37,6.0,8.0,59,0.00,,,0.00,926,Wunderground v.1.15,2013-05-17 17:46:00,
2013-05-17 13:52:00,68.3,54.3,30.10,NE,37,6.0,7.0,61,0.00,,,0.00,925,Wunderground v.1.15,2013-05-17 17:52:00,
2013-05-17 13:58:00,69.0,54.5,30.09,NE,37,5.0,7.0,60,0.00,,,0.00,912,Wunderground v.1.15,2013-05-17 17:58:00,
2013-05-17 14:04:00,69.3,54.8,30.09,NE,37,4.0,6.0,60,0.00,,,0.00,912,Wunderground v.1.15,2013-05-17 18:04:00,
2013-05-17 14:10:00,69.4,54.4,30.09,NE,37,3.0,5.0,59,0.00,,,0.00,905,Wunderground v.1.15,2013-05-17 18:10:00,
2013-05-17 14:16:00,68.8,53.4,30.09,NE,37,4.0,6.0,58,0.00,,,0.00,896,Wunderground v.1.15,2013-05-17 18:16:00,
2013-05-17 14:22:00,69.7,54.3,30.09,NE,37,4.0,5.0,58,0.00,,,0.00,891,Wunderground v.1.15,2013-05-17 18:22:00,
2013-05-17 14:28:00,69.2,52.8,30.09,NE,37,5.0,7.0,56,0.00,,,0.00,886,Wunderground v.1.15,2013-05-17 18:28:00,
2013-05-17 14:34:00,69.7,52.3,30.09,NE,37,5.0,5.0,54,0.00,,,0.00,875,Wunderground v.1.15,2013-05-17 18:34:00,
2013-05-17 14:40:00,69.2,51.8,30.09,NE,37,5.0,7.0,54,0.00,,,0.00,865,Wunderground v.1.15,2013-05-17 18:40:00,
2013-05-17 14:46:00,69.3,51.4,30.09,NE,38,6.0,7.0,53,0.00,,,0.00,858,Wunderground v.1.15,2013-05-17 18:46:00,
2013-05-17 14:52:00,69.9,50.9,30.09,NE,38,5.0,7.0,51,0.00,,,0.00,840,Wunderground v.1.15,2013-05-17 18:52:00,
2013-05-17 14:58:00,69.8,51.4,30.09,NE,37,5.0,7.0,52,0.00,,,0.00,838,Wunderground v.1.15,2013-05-17 18:58:00,
2013-05-17 15:04:00,69.7,52.3,30.09,NE,37,5.0,7.0,54,0.00,,,0.00,828,Wunderground v.1.15,2013-05-17 19:04:00,
2013-05-17 15:10:00,69.9,53.5,30.09,NE,37,5.0,5.0,56,0.00,,,0.00,819,Wunderground v.1.15,2013-05-17 19:10:00,
2013-05-17 15:16:00,70.6,57.4,30.09,NE,37,3.0,5.0,63,0.00,,,0.00,814,Wunderground v.1.15,2013-05-17 19:16:00,
2013-05-17 15:22:00,70.0,56.4,30.09,NE,42,3.0,3.0,62,0.00,,,0.00,807,Wunderground v.1.15,2013-05-17 19:22:00,
2013-05-17 15:28:00,70.8,53.8,30.09,NE,42,3.0,4.0,55,0.00,,,0.00,800,Wunderground v.1.15,2013-05-17 19:28:00,
2013-05-17 15:36:00,70.4,54.4,30.09,NE,42,4.0,6.0,57,0.00,,,0.00,780,Wunderground v.1.15,2013-05-17 19:36:00,
2013-05-17 15:42:00,71.3,53.3,30.08,NE,49,4.0,5.0,53,0.00,,,0.00,724,Wunderground v.1.15,2013-05-17 19:42:00,
2013-05-17 15:48:00,71.5,52.9,30.09,NE,49,4.0,5.0,52,0.00,,,0.00,740,Wunderground v.1.15,2013-05-17 19:48:00,
2013-05-17 15:54:00,71.4,52.3,30.09,NE,49,3.0,5.0,51,0.00,,,0.00,707,Wunderground v.1.15,2013-05-17 19:54:00,
2013-05-17 16:00:00,69.8,54.4,30.09,NE,49,4.0,5.0,58,0.00,,,0.00,673,Wunderground v.1.15,2013-05-17 20:00:00,
2013-05-17 16:06:00,68.5,55.0,30.09,NE,49,5.0,6.0,62,0.00,,,0.00,682,Wunderground v.1.15,2013-05-17 20:06:00,
2013-05-17 16:12:00,68.9,52.6,30.09,NE,49,5.0,6.0,56,0.00,,,0.00,592,Wunderground v.1.15,2013-05-17 20:12:00,
2013-05-17 16:18:00,70.6,52.6,30.09,NE,49,4.0,6.0,53,0.00,,,0.00,622,Wunderground v.1.15,2013-05-17 20:18:00,
2013-05-17 16:24:00,72.2,52.5,30.08,NE,49,2.0,3.0,50,0.00,,,0.00,640,Wunderground v.1.15,2013-05-17 20:24:00,
2013-05-17 16:30:00,72.0,54.9,30.08,NE,49,2.0,3.0,55,0.00,,,0.00,610,Wunderground v.1.15,2013-05-17 20:30:00,
2013-05-17 16:36:00,70.9,56.8,30.08,NE,49,3.0,5.0,61,0.00,,,0.00,603,Wunderground v.1.15,2013-05-17 20:36:00,
2013-05-17 16:42:00,67.8,57.3,30.09,ENE,67,5.0,9.0,69,0.00,,,0.00,591,Wunderground v.1.15,2013-05-17 20:42:00,
2013-05-17 16:48:00,66.4,56.7,30.09,SE,140,8.0,11.0,71,0.00,,,0.00,555,Wunderground v.1.15,2013-05-17 20:48:00,
2013-05-17 16:54:00,66.5,56.8,30.10,SE,144,8.0,9.0,71,0.00,,,0.00,548,Wunderground v.1.15,2013-05-17 20:54:00,
2013-05-17 17:00:00,66.2,57.3,30.10,SE,144,6.0,6.0,73,0.00,,,0.00,529,Wunderground v.1.15,2013-05-17 21:00:00,
2013-05-17 17:06:00,66.5,57.2,30.10,SE,144,4.0,6.0,72,0.00,,,0.00,519,Wunderground v.1.15,2013-05-17 21:06:00,
2013-05-17 17:12:00,66.5,56.8,30.10,SSE,155,5.0,9.0,71,0.00,,,0.00,503,Wunderground v.1.15,2013-05-17 21:12:00,
2013-05-17 17:18:00,66.2,56.5,30.10,SSE,161,6.0,9.0,71,0.00,,,0.00,476,Wunderground v.1.15,2013-05-17 21:18:00,
2013-05-17 17:24:00,66.1,56.8,30.10,SSE,161,4.0,6.0,72,0.00,,,0.00,466,Wunderground v.1.15,2013-05-17 21:24:00,
2013-05-17 17:30:00,66.4,55.9,30.11,SSE,161,4.0,4.0,69,0.00,,,0.00,446,Wunderground v.1.15,2013-05-17 21:30:00,
2013-05-17 17:36:00,66.9,55.6,30.11,SSE,162,5.0,5.0,67,0.00,,,0.00,434,Wunderground v.1.15,2013-05-17 21:36:00,
2013-05-17 17:42:00,68.5,52.7,30.10,SSE,162,4.0,5.0,57,0.00,,,0.00,411,Wunderground v.1.15,2013-05-17 21:42:00,
2013-05-17 17:48:00,68.3,55.2,30.11,South,176,5.0,9.0,63,0.00,,,0.00,388,Wunderground v.1.15,2013-05-17 21:48:00,
2013-05-17 17:54:00,67.0,54.4,30.11,South,178,7.0,10.0,64,0.00,,,0.00,369,Wunderground v.1.15,2013-05-17 21:54:00,
2013-05-17 18:00:00,66.8,55.1,30.11,South,178,7.0,7.0,66,0.00,,,0.00,334,Wunderground v.1.15,2013-05-17 22:00:00,
2013-05-17 18:06:00,66.4,54.7,30.11,South,184,7.0,9.0,66,0.00,,,0.00,306,Wunderground v.1.15,2013-05-17 22:06:00,
2013-05-17 18:12:00,66.1,54.4,30.11,South,190,8.0,8.0,66,0.00,,,0.00,311,Wunderground v.1.15,2013-05-17 22:12:00,
2013-05-17 18:18:00,66.1,54.8,30.11,South,191,8.0,9.0,67,0.00,,,0.00,295,Wunderground v.1.15,2013-05-17 22:18:00,
2013-05-17 18:26:00,66.6,55.7,30.11,South,191,6.0,10.0,68,0.00,,,0.00,264,Wunderground v.1.15,2013-05-17 22:26:00,
2013-05-17 18:32:00,65.8,54.9,30.11,SSW,193,7.0,8.0,68,0.00,,,0.00,234,Wunderground v.1.15,2013-05-17 22:32:00,
2013-05-17 18:38:00,65.3,53.2,30.11,SSW,193,7.0,8.0,65,0.00,,,0.00,211,Wunderground v.1.15,2013-05-17 22:38:00,
2013-05-17 18:44:00,65.5,53.0,30.11,SSW,193,7.0,7.0,64,0.00,,,0.00,190,Wunderground v.1.15,2013-05-17 22:44:00,
2013-05-17 18:50:00,65.4,51.1,30.11,SSW,193,7.0,7.0,60,0.00,,,0.00,165,Wunderground v.1.15,2013-05-17 22:50:00,
2013-05-17 18:56:00,65.6,51.3,30.11,SSW,193,7.0,7.0,60,0.00,,,0.00,130,Wunderground v.1.15,2013-05-17 22:56:00,
2013-05-17 19:02:00,65.1,53.0,30.11,SSW,193,7.0,7.0,65,0.00,,,0.00,111,Wunderground v.1.15,2013-05-17 23:02:00,
2013-05-17 19:08:00,64.3,53.5,30.12,SSW,193,6.0,7.0,68,0.00,,,0.00,100,Wunderground v.1.15,2013-05-17 23:08:00,
2013-05-17 19:14:00,64.1,52.1,30.12,SSW,193,6.0,7.0,65,0.00,,,0.00,81,Wunderground v.1.15,2013-05-17 23:14:00,
2013-05-17 19:20:00,64.4,50.7,30.12,SSW,193,5.0,6.0,61,0.00,,,0.00,70,Wunderground v.1.15,2013-05-17 23:20:00,
2013-05-17 19:26:00,64.7,51.4,30.12,SSW,193,5.0,6.0,62,0.00,,,0.00,63,Wunderground v.1.15,2013-05-17 23:26:00,
2013-05-17 19:32:00,64.8,51.5,30.12,SSW,193,4.0,6.0,62,0.00,,,0.00,56,Wunderground v.1.15,2013-05-17 23:32:00,
2013-05-17 19:38:00,64.4,51.1,30.12,SSW,193,5.0,7.0,62,0.00,,,0.00,40,Wunderground v.1.15,2013-05-17 23:38:00,
2013-05-17 19:44:00,64.1,50.8,30.12,SSW,193,6.0,8.0,62,0.00,,,0.00,28,Wunderground v.1.15,2013-05-17 23:44:00,
2013-05-17 19:50:00,63.9,50.6,30.12,SSW,193,6.0,6.0,62,0.00,,,0.00,18,Wunderground v.1.15,2013-05-17 23:50:00,
2013-05-17 19:56:00,63.8,49.6,30.13,SSW,193,5.0,6.0,60,0.00,,,0.00,11,Wunderground v.1.15,2013-05-17 23:56:00,
2013-05-17 20:02:00,63.9,49.3,30.12,SSW,193,5.0,7.0,59,0.00,,,0.00,5,Wunderground v.1.15,2013-05-18 00:02:00,
2013-05-17 20:08:00,64.0,49.4,30.13,SSW,193,5.0,7.0,59,0.00,,,0.00,0,Wunderground v.1.15,2013-05-18 00:08:00,
2013-05-17 20:14:00,63.8,49.2,30.13,SSW,193,5.0,6.0,59,0.00,,,0.00,0,Wunderground v.1.15,2013-05-18 00:14:00,
2013-05-17 20:20:00,63.6,50.3,30.13,SSW,193,5.0,5.0,62,0.00,,,0.00,0,Wunderground v.1.15,2013-05-18 00:20:00,
2013-05-17 20:26:00,63.4,51.0,30.14,SSW,193,6.0,7.0,64,0.00,,,0.00,0,Wunderground v.1.15,2013-05-18 00:26:00,
2013-05-17 20:32:00,63.0,52.3,30.14,SSW,193,6.0,7.0,68,0.00,,,0.00,0,Wunderground v.1.15,2013-05-18 00:32:00,
2013-05-17 20:38:00,62.9,54.1,30.15,SSW,193,4.0,7.0,73,0.00,,,0.00,0,Wunderground v.1.15,2013-05-18 00:38:00,
2013-05-17 20:44:00,62.4,53.6,30.15,SSW,193,4.0,6.0,73,0.00,,,0.00,0,Wunderground v.1.15,2013-05-18 00:44:00,
2013-05-17 20:50:00,62.0,53.6,30.15,SSW,193,4.0,4.0,74,0.00,,,0.00,0,Wunderground v.1.15,2013-05-18 00:50:00,
2013-05-17 20:56:00,62.0,54.0,30.16,SSW,192,4.0,6.0,75,0.00,,,0.00,0,Wunderground v.1.15,2013-05-18 00:56:00,
2013-05-17 21:02:00,62.1,54.4,30.15,South,169,7.0,13.0,76,0.00,,,0.00,0,Wunderground v.1.15,2013-05-18 01:02:00,
2013-05-17 21:08:00,62.1,54.8,30.16,SSE,167,10.0,13.0,77,0.00,,,0.00,0,Wunderground v.1.15,2013-05-18 01:08:00,
2013-05-17 21:14:00,61.8,54.5,30.16,SSE,167,10.0,10.0,77,0.00,,,0.00,0,Wunderground v.1.15,2013-05-18 01:14:00,
2013-05-17 21:20:00,61.5,54.6,30.16,SSE,165,10.0,10.0,78,0.00,,,0.00,0,Wunderground v.1.15,2013-05-18 01:20:00,
2013-05-17 21:26:00,61.3,54.7,30.16,SSE,165,10.0,10.0,79,0.00,,,0.00,0,Wunderground v.1.15,2013-05-18 01:26:00,
2013-05-17 21:32:00,61.1,54.5,30.17,SSE,165,9.0,9.0,79,0.00,,,0.00,0,Wunderground v.1.15,2013-05-18 01:32:00,
2013-05-17 21:38:00,61.1,54.9,30.17,SSE,165,8.0,10.0,80,0.00,,,0.00,0,Wunderground v.1.15,2013-05-18 01:38:00,
2013-05-17 21:44:00,61.1,54.9,30.17,SSE,165,9.0,9.0,80,0.00,,,0.00,0,Wunderground v.1.15,2013-05-18 01:44:00,
2013-05-17 21:50:00,61.1,54.9,30.17,SSE,165,8.0,8.0,80,0.00,,,0.00,0,Wunderground v.1.15,2013-05-18 01:50:00,
2013-05-17 21:56:00,61.0,54.8,30.17,SSE,165,8.0,10.0,80,0.00,,,0.00,0,Wunderground v.1.15,2013-05-18 01:56:00,
2013-05-17 22:02:00,61.0,54.8,30.17,SSE,165,8.0,9.0,80,0.00,,,0.00,0,Wunderground v.1.15,2013-05-18 02:02:00,
2013-05-17 22:08:00,61.1,54.5,30.17,SSE,165,7.0,9.0,79,0.00,,,0.00,0,Wunderground v.1.15,2013-05-18 02:08:00,
2013-05-17 22:14:00,61.1,54.9,30.17,SSE,164,6.0,9.0,80,0.00,,,0.00,0,Wunderground v.1.15,2013-05-18 02:14:00,
2013-05-17 22:20:00,61.1,54.5,30.18,SSE,163,8.0,9.0,79,0.00,,,0.00,0,Wunderground v.1.15,2013-05-18 02:20:00,
2013-05-17 22:26:00,61.2,55.0,30.18,SSE,163,9.0,10.0,80,0.00,,,0.00,0,Wunderground v.1.15,2013-05-18 02:26:00,
2013-05-17 22:32:00,61.1,55.2,30.18,SSE,163,9.0,12.0,81,0.00,,,0.00,0,Wunderground v.1.15,2013-05-18 02:32:00,
2013-05-17 22:38:00,61.1,55.6,30.18,SSE,161,9.0,12.0,82,0.00,,,0.00,0,Wunderground v.1.15,2013-05-18 02:38:00,
2013-05-17 22:44:00,61.1,55.9,30.18,SSE,160,10.0,10.0,83,0.00,,,0.00,0,Wunderground v.1.15,2013-05-18 02:44:00,
2013-05-17 22:50:00,60.9,55.7,30.18,SSE,154,10.0,10.0,83,0.00,,,0.00,0,Wunderground v.1.15,2013-05-18 02:50:00,
2013-05-17 22:56:00,60.7,55.5,30.18,SSE,151,11.0,12.0,83,0.00,,,0.00,0,Wunderground v.1.15,2013-05-18 02:56:00,
2013-05-17 23:02:00,60.6,55.4,30.18,SSE,150,11.0,11.0,83,0.00,,,0.00,0,Wunderground v.1.15,2013-05-18 03:02:00,
2013-05-17 23:08:00,60.5,55.3,30.18,SSE,153,12.0,12.0,83,0.00,,,0.00,0,Wunderground v.1.15,2013-05-18 03:08:00,
2013-05-17 23:14:00,60.4,55.2,30.18,SSE,148,11.0,13.0,83,0.00,,,0.00,0,Wunderground v.1.15,2013-05-18 03:14:00,
2013-05-17 23:20:00,60.5,55.3,30.18,SE,146,11.0,12.0,83,0.00,,,0.00,0,Wunderground v.1.15,2013-05-18 03:20:00,
2013-05-17 23:26:00,60.4,54.9,30.18,SSE,148,12.0,12.0,82,0.00,,,0.00,0,Wunderground v.1.15,2013-05-18 03:26:00,
2013-05-17 23:32:00,60.3,54.8,30.18,SE,146,12.0,13.0,82,0.00,,,0.00,0,Wunderground v.1.15,2013-05-18 03:32:00,
2013-05-17 23:38:00,60.3,54.4,30.18,SSE,153,13.0,13.0,81,0.00,,,0.00,0,Wunderground v.1.15,2013-05-18 03:38:00,
2013-05-17 23:44:00,60.2,54.0,30.19,SSE,157,12.0,13.0,80,0.00,,,0.00,0,Wunderground v.1.15,2013-05-18 03:44:00,
2013-05-17 23:50:00,60.2,53.7,30.18,SE,143,13.0,17.0,79,0.00,,,0.00,0,Wunderground v.1.15,2013-05-18 03:50:00,
2013-05-17 23:56:00,60.3,53.8,30.19,SSE,165,13.0,17.0,79,0.00,,,0.00,0,Wunderground v.1.15,2013-05-18 03:56:00,